TimeCST,TemperatureF,Dew PointF,Humidity,Sea Level PressureIn,VisibilityMPH,Wind Direction,Wind SpeedMPH,Gust SpeedMPH,PrecipitationIn,Events,Conditions,WindDirDegrees,DateUTC
1:55 AM,44.6,39.2,81,29.98,10.0,South,15.0,-,N/A,,Clear,170,2013-02-18 07:55:00
2:15 AM,44.6,39.2,81,29.98,10.0,South,17.3,23.0,N/A,,Clear,180,2013-02-18 08:15:00
2:35 AM,46.4,39.2,76,29.98,10.0,South,18.4,-,N/A,,Clear,170,2013-02-18 08:35:00
2:55 AM,46.4,39.2,76,29.97,10.0,South,21.9,-,N/A,,Clear,180,2013-02-18 08:55:00
3:15 AM,46.4,39.2,76,29.97,10.0,South,19.6,-,N/A,,Clear,180,2013-02-18 09:15:00
3:55 AM,46.4,41.0,81,29.97,10.0,South,19.6,-,N/A,,Clear,180,2013-02-18 09:55:00
4:15 AM,46.4,41.0,81,29.97,10.0,South,18.4,-,N/A,,Clear,180,2013-02-18 10:15:00
4:35 AM,44.6,41.0,87,29.97,10.0,South,15.0,-,N/A,,Clear,180,2013-02-18 10:35:00
4:55 AM,44.6,41.0,87,29.97,10.0,South,13.8,-,N/A,,Clear,180,2013-02-18 10:55:00
5:15 AM,46.4,42.8,87,29.97,10.0,South,17.3,20.7,N/A,,Clear,190,2013-02-18 11:15:00
5:35 AM,48.2,42.8,82,29.97,10.0,South,18.4,-,N/A,,Clear,190,2013-02-18 11:35:00
5:55 AM,46.4,42.8,87,29.96,10.0,South,17.3,-,N/A,,Clear,180,2013-02-18 11:55:00
6:15 AM,46.4,42.8,87,29.96,10.0,South,19.6,24.2,N/A,,Clear,180,2013-02-18 12:15:00
6:35 AM,46.4,42.8,87,29.95,10.0,South,20.7,26.5,N/A,,Clear,180,2013-02-18 12:35:00
6:55 AM,46.4,42.8,87,29.95,10.0,South,18.4,-,N/A,,Clear,170,2013-02-18 12:55:00
7:15 AM,46.4,42.8,87,29.94,10.0,South,19.6,-,N/A,,Clear,170,2013-02-18 13:15:00
7:35 AM,46.4,42.8,87,29.94,10.0,South,25.3,31.1,N/A,,Clear,180,2013-02-18 13:35:00
7:55 AM,48.2,42.8,82,29.94,10.0,South,28.8,34.5,N/A,,Scattered Clouds,180,2013-02-18 13:55:00
8:15 AM,50.0,42.8,76,29.94,10.0,South,28.8,36.8,N/A,,Scattered Clouds,180,2013-02-18 14:15:00
8:35 AM,50.0,42.8,76,29.93,10.0,South,28.8,35.7,N/A,,Mostly Cloudy,180,2013-02-18 14:35:00
8:55 AM,50.0,42.8,76,29.92,10.0,South,29.9,40.3,N/A,,Overcast,180,2013-02-18 14:55:00
9:15 AM,50.0,42.8,76,29.92,10.0,South,26.5,34.5,N/A,,Overcast,180,2013-02-18 15:15:00
9:35 AM,50.0,42.8,76,29.92,10.0,South,27.6,33.4,N/A,,Overcast,180,2013-02-18 15:35:00
9:55 AM,51.8,44.6,76,29.92,10.0,South,25.3,34.5,N/A,,Overcast,180,2013-02-18 15:55:00
10:15 AM,51.8,44.6,76,29.93,10.0,South,19.6,28.8,N/A,,Overcast,180,2013-02-18 16:15:00
10:35 AM,51.8,44.6,76,29.92,10.0,South,24.2,36.8,N/A,,Overcast,190,2013-02-18 16:35:00
10:55 AM,51.8,44.6,76,29.91,10.0,South,25.3,33.4,N/A,,Overcast,190,2013-02-18 16:55:00
11:15 AM,50.0,44.6,82,29.90,10.0,South,29.9,35.7,N/A,,Overcast,190,2013-02-18 17:15:00
11:35 AM,48.2,46.4,93,29.88,7.0,South,21.9,34.5,0.04,,Overcast,190,2013-02-18 17:35:00
12:15 PM,51.8,46.4,82,29.86,10.0,South,32.2,38.0,N/A,,Overcast,180,2013-02-18 18:15:00
12:35 PM,51.8,46.4,82,29.84,10.0,South,26.5,36.8,N/A,,Overcast,180,2013-02-18 18:35:00
12:55 PM,51.8,46.4,82,29.83,10.0,South,28.8,35.7,N/A,,Overcast,180,2013-02-18 18:55:00
1:15 PM,51.8,46.4,82,29.81,10.0,South,28.8,35.7,N/A,,Overcast,180,2013-02-18 19:15:00
1:55 PM,51.8,48.2,88,29.79,10.0,South,23.0,29.9,0.01,,Overcast,180,2013-02-18 19:55:00
2:15 PM,53.6,48.2,82,29.76,10.0,South,26.5,34.5,N/A,,Overcast,170,2013-02-18 20:15:00
2:35 PM,53.6,48.2,82,29.75,10.0,South,27.6,35.7,N/A,,Overcast,170,2013-02-18 20:35:00
2:55 PM,55.4,50.0,82,29.73,10.0,South,28.8,36.8,N/A,,Overcast,170,2013-02-18 20:55:00
3:15 PM,53.6,50.0,88,29.72,10.0,South,26.5,33.4,N/A,,Overcast,170,2013-02-18 21:15:00
3:35 PM,53.6,50.0,88,29.72,10.0,South,23.0,-,N/A,,Overcast,170,2013-02-18 21:35:00
3:55 PM,53.6,50.0,88,29.70,10.0,South,24.2,32.2,0.01,,Overcast,170,2013-02-18 21:55:00
4:15 PM,53.6,50.0,88,29.69,10.0,South,25.3,-,N/A,,Mostly Cloudy,180,2013-02-18 22:15:00
4:35 PM,53.6,50.0,88,29.68,9.0,South,25.3,32.2,N/A,Thunderstorm,Overcast,170,2013-02-18 22:35:00
4:55 PM,53.6,50.0,88,29.69,10.0,South,21.9,31.1,0.02,,Overcast,180,2013-02-18 22:55:00
5:35 PM,53.6,51.8,94,29.67,10.0,South,24.2,29.9,0.01,,Overcast,180,2013-02-18 23:35:00
5:55 PM,53.6,51.8,94,29.69,10.0,South,25.3,31.1,0.02,Thunderstorm,Thunderstorm,190,2013-02-18 23:55:00
6:15 PM,-9999,-9999,N/A,29.72,8.0,SW,19.6,39.1,0.11,Thunderstorm,Thunderstorm,230,2013-02-19 00:15:00
6:35 PM,-9999,-9999,N/A,29.72,10.0,SW,17.3,-,0.13,,Overcast,220,2013-02-19 00:35:00
6:55 PM,-9999,-9999,N/A,29.72,10.0,SW,13.8,-,0.13,,Mostly Cloudy,220,2013-02-19 00:55:00
7:15 PM,-9999,-9999,N/A,29.73,10.0,SW,16.1,-,N/A,,Mostly Cloudy,230,2013-02-19 01:15:00
7:35 PM,-9999,-9999,N/A,29.74,10.0,WSW,15.0,-,N/A,,Scattered Clouds,240,2013-02-19 01:35:00
7:55 PM,-9999,-9999,N/A,29.76,10.0,West,15.0,20.7,N/A,,Partly Cloudy,270,2013-02-19 01:55:00
8:15 PM,-9999,-9999,N/A,29.78,10.0,WNW,21.9,32.2,N/A,,Partly Cloudy,290,2013-02-19 02:15:00
8:35 PM,-9999,-9999,N/A,29.81,10.0,West,23.0,31.1,N/A,,Mostly Cloudy,280,2013-02-19 02:35:00
8:55 PM,-9999,-9999,N/A,29.85,10.0,NW,26.5,33.4,N/A,,Overcast,310,2013-02-19 02:55:00
9:15 PM,-9999,-9999,N/A,29.87,10.0,WNW,24.2,33.4,N/A,,Overcast,300,2013-02-19 03:15:00
9:35 PM,-9999,-9999,N/A,29.87,10.0,WNW,23.0,32.2,N/A,,Overcast,300,2013-02-19 03:35:00
9:55 PM,-9999,-9999,N/A,29.90,10.0,WNW,18.4,29.9,N/A,,Mostly Cloudy,300,2013-02-19 03:55:00
10:15 PM,-9999,-9999,N/A,29.91,10.0,WNW,15.0,-,N/A,,Clear,300,2013-02-19 04:15:00
10:35 PM,-9999,-9999,N/A,29.92,10.0,WNW,16.1,19.6,N/A,,Clear,300,2013-02-19 04:35:00
10:55 PM,-9999,-9999,N/A,29.93,10.0,WNW,15.0,-,N/A,,Clear,300,2013-02-19 04:55:00
11:15 PM,-9999,-9999,N/A,29.95,10.0,WNW,12.7,-,N/A,,Scattered Clouds,290,2013-02-19 05:15:00
11:35 PM,-9999,-9999,N/A,29.96,10.0,WNW,9.2,-,N/A,,Overcast,290,2013-02-19 05:35:00
11:55 PM,-9999,-9999,N/A,29.98,10.0,WNW,17.3,-,N/A,,Overcast,300,2013-02-19 05:55:00